Regional Weather Roundup
Issued by NWS

Home | Current Version | Previous Version | Graphics & Text | Print | Product List | Glossary On
Versions: 1 2 3 4 5 6 7 8 9 10 11 12 13 14 15 16 17 18 19 20 21 22 23 24 25 26 27 28 29 30 31 32 33 34 35 36 37 38 39 40 41 42 43 44 45 46 47 48 49 50
000
ASUS43 KLOT 271103
RWRIL

ILLINOIS REGIONAL WEATHER ROUNDUP
NATIONAL WEATHER SERVICE CHICAGO/ROMEOVILLE IL
600 AM CDT WED JUL 27 2016

NOTE: "FAIR" INDICATES FEW OR NO CLOUDS BELOW 12,000 FEET WITH NO
SIGNIFICANT WEATHER AND/OR OBSTRUCTIONS TO VISIBILITY.

* THESE STATIONS ARE NOT UNDER NWS QUALITY CONTROL. THEY ALSO MAY NOT
  REPORT WEATHER SUCH AS PRECIPITATION OR FOG.

ILZ001-002-007-009-015-016-024-271200-
NORTHWEST ILLINOIS

CITY           SKY/WX    TMP DP  RH WIND       PRES   REMARKS
MOLINE         CLEAR     66  63  90 CALM      30.02R
STERLING*      CLEAR     63  63 100 E3        30.04R FOG
SAVANNA*       PTCLDY    64  64  99 CALM      30.03R FOG
$$

ILZ003-004-008-010-011-017-018-271200-
NORTH CENTRAL ILLINOIS

CITY           SKY/WX    TMP DP  RH WIND       PRES   REMARKS
ROCKFORD       MOCLDY    66  62  87 S5        30.05R
FREEPORT*      CLEAR     61  60  96 CALM      30.06R
ROCHELLE*      CLEAR     62  61  98 CALM      30.05R FOG
DE KALB*       CLEAR     66  64  92 CALM      30.06R
$$

ILZ005-006-012>014-019>023-271200-
NORTHEAST ILLINOIS

CITY           SKY/WX    TMP DP  RH WIND       PRES   REMARKS
CHICAGO-OHARE  PTCLDY    69  63  81 CALM      30.02R
CHICAGO-MIDWAY PTCLDY    72  65  78 CALM      30.03R
AURORA         CLEAR     64  62  93 CALM      30.04R
LANSING*       CLEAR     67  63  89 CALM      30.03S
WAUKEGAN       CLEAR     68  65  90 W3        30.02R
DUPAGE AIRPORT CLEAR     66  63  90 CALM      30.03R
KANKAKEE*      CLEAR     66  64  96 CALM      30.04R
WHEELING       CLEAR     67  64  90 CALM      30.03R
MORRIS*        CLEAR     66  65  96 CALM      30.02S FOG
NORTHERLY ISL    N/A     70  64  81 CALM        N/A
$$

LMZ740>746-271200-
SOUTHERN LAKE MICHIGAN

STATION/POSITION SKY/WX   TEMP    WIND        PRES    VSBY  WAVE
                          AIR SEA DIR/SP/G                  HT/PER
                          (F)     (DEG/KT/KT) (MB)    (MI)  (FT/S)
SOUTHERN BUOY              75 75  220/  6/  8 1015.2          0
WILMETTE HARBOR            70 71  330/  2/  4   N/A           0
HARRISON CRIB              76     360/  7/  7   N/A
BURNHAM HARBOR             71      CALM  /  5   N/A
CALUMET HARBOR             72     220/  2/  3 1015.8R
BURNS HARBOR               71     190/  6/  8 1016.9R
MICHIGAN CITY              71     170/  4/  4   N/A
MICHIGAN CITY 6N           74 76  210/  4/  4   N/A           0
ST. JOSEPH                 74 78  190/  4/  4 1016.2R         0
$$

ILZ025>027-034>036-040-047-049-050-058-095>099-271200-
WEST-CENTRAL ILLINOIS

CITY           SKY/WX    TMP DP  RH WIND       PRES   REMARKS
QUINCY         CLEAR     70  68  93 E6        30.01R
GALESBURG*     CLEAR     65  64  98 CALM      30.03S FOG
MACOMB*        PTCLDY    65  65 100 CALM      30.04S FOG
JACKSONVILLE*  CLOUDY    71  69  93 E6        30.01S
PITTSFIELD*    CLOUDY    73  72  97 CALM      30.02R
$$

ILZ028>032-037-038-041>044-048-051>054-059>061-271200-
CENTRAL ILLINOIS

CITY           SKY/WX    TMP DP  RH WIND       PRES   REMARKS
BLOOMINGTON    CLEAR     68  66  93 CALM      30.05R
DECATUR        MOCLDY    67  64  90 CALM      30.03R
PEORIA         CLEAR     69  68  96 CALM      30.03R
LACON*         CLEAR     67  66  95 CALM      30.02S
LINCOLN*       CLEAR     66  66  99 CALM      30.03R
SPRINGFIELD    CLOUDY    73  69  87 CALM      30.03R
TAYLORVILLE    CLOUDY    71  68  91 MISG      30.02S
$$

ILZ033-039-045-046-055>057-062-063-271200-
EAST-CENTRAL ILLINOIS

CITY           SKY/WX    TMP DP  RH WIND       PRES   REMARKS
CHAMPAIGN      CLEAR     65  62  90 CALM      30.04R
MATTOON        MOCLDY    68  65  90 CALM      30.02R
PARIS*         CLEAR     63  63 100 CALM      30.04R
$$

ILZ079-100>102-271200-
SOUTHWEST ILLINOIS

CITY           SKY/WX    TMP DP  RH WIND       PRES   REMARKS
ALTON          CLOUDY    74  73  99 CALM      30.01R FOG
BELLEVILLE     CLOUDY    74  74 100 SW3       29.99R
CAHOKIA*       CLOUDY    75  72  90 CALM      29.99S
SPARTA*        PTCLDY    73  73  99 CALM      30.02R
$$

ILZ064>066-069>071-074>076-080>082-084>086-088>090-092>094-271200-
SOUTH-CENTRAL ILLINOIS

CITY           SKY/WX    TMP DP  RH WIND       PRES   REMARKS
CARBONDALE     FOG       74  72  93 CALM      30.00R VSB 1/4
CAIRO*         CLEAR     72  72 100 CALM      29.99R FOG
EFFINGHAM*     CLOUDY    71  71 100 CALM      30.03R
MARION         FOG       73  72  94 CALM      30.01R VSB 1/4
MT. VERNON     PTCLDY    73  70  88 MISG      30.01R
CENTRALIA*     CLOUDY    75  75 100 CALM      30.00S FOG
SALEM*         PTCLDY    75  74  94 CALM      30.01R
METROPOLIS*      N/A     73  73  98 CALM      30.00R FOG
$$

ILZ067-068-072-073-078-083-087-091-271200-
SOUTHEAST ILLINOIS

CITY           SKY/WX    TMP DP  RH WIND       PRES   REMARKS
LAWRENCEVILLE  CLOUDY    74  73  97 NE5       30.00R
FLORA*         CLOUDY    74  73  96 CALM      30.01R
FAIRFIELD*     CLOUDY    74  74 100 CALM      30.00R
HARRISBURG*    FOG       71  71 100 CALM      30.00S VSB 1/4
ROBINSON*      CLOUDY    71  71 100 CALM      30.02R
CARMI*         PTCLDY    72  72 100 CALM      30.00R FOG
$$

ABBREVIATIONS USED IN REMARKS
   TC - TEMPERATURE IN CELSIUS
  WCI - WIND CHILL INDEX
   HX - HEAT INDEX
  VSB - VISIBILITY
$$




USA.gov is the U.S. government's official web portal to all federal, state and local government web resources and services.